| time (UTC) | temp F | wind direction | speed MPH | gust MPH | rain 1hr in | rain 24hr in | rain mn in | humidity % | barometer mb |
| 20260510121150 | 52 | 132 | 1.0 | 1.0 | 0.00 | 0.00 | 0.00 | 96 | 1017.2 |
| 20260510120647 | 52 | 132 | 1.0 | 1.0 | 0.00 | 0.00 | 0.00 | 96 | 1017.2 |
| 20260510120143 | 52 | 151 | 1.0 | 1.0 | 0.00 | 0.00 | 0.00 | 96 | 1017.3 |
| 20260510115639 | 52 | 153 | 0.0 | 0.0 | 0.00 | 0.00 | 0.00 | 96 | 1017.2 |
| 20260510115138 | 51 | 159 | 1.0 | 3.0 | 0.00 | 0.00 | 0.00 | 96 | 1016.9 |
| 20260510114633 | 51 | 159 | 1.0 | 3.0 | 0.00 | 0.00 | 0.00 | 96 | 1016.9 |
| 20260510114129 | 52 | 114 | 1.0 | 1.0 | 0.00 | 0.00 | 0.00 | 96 | 1017.1 |
| 20260510113625 | 52 | 175 | 0.0 | 0.0 | 0.00 | 0.00 | 0.00 | 96 | 1016.9 |
| 20260510113122 | 52 | 113 | 1.0 | 2.0 | 0.00 | 0.00 | 0.00 | 96 | 1016.8 |
| 20260510112619 | 52 | 164 | 0.0 | 0.0 | 0.00 | 0.00 | 0.00 | 96 | 1016.7 |
| 20260510112115 | 52 | 172 | 1.0 | 2.0 | 0.00 | 0.00 | 0.00 | 96 | 1016.6 |
| 20260510111612 | 51 | 153 | 1.0 | 1.0 | 0.00 | 0.00 | 0.00 | 96 | 1016.5 |
| 20260510111108 | 51 | 164 | 1.0 | 1.0 | 0.00 | 0.00 | 0.00 | 96 | 1016.5 |
| 20260510110604 | 51 | 159 | 0.0 | 1.0 | 0.00 | 0.00 | 0.00 | 96 | 1016.7 |
| 20260510110100 | 52 | 158 | 0.0 | 1.0 | 0.00 | 0.00 | 0.00 | 96 | 1016.8 |
| 20260510105551 | 52 | 116 | 1.0 | 2.0 | 0.00 | 0.00 | 0.00 | 96 | 1016.7 |
| 20260510105046 | 51 | 111 | 0.0 | 0.0 | 0.00 | 0.00 | 0.00 | 96 | 1016.7 |
| 20260510104543 | 51 | 145 | 0.0 | 1.0 | 0.00 | 0.00 | 0.00 | 96 | 1016.5 |
| 20260510104039 | 51 | 125 | 0.0 | 0.0 | 0.00 | 0.00 | 0.00 | 96 | 1016.7 |
| 20260510103536 | 52 | 171 | 0.0 | 0.0 | 0.00 | 0.00 | 0.00 | 96 | 1016.8 |
| 20260510103032 | 52 | 171 | 0.0 | 0.0 | 0.00 | 0.00 | 0.00 | 96 | 1016.8 |
| 20260510102528 | 51 | 164 | 0.0 | 0.0 | 0.00 | 0.00 | 0.00 | 96 | 1016.6 |
| 20260510102024 | 51 | 164 | 0.0 | 0.0 | 0.00 | 0.00 | 0.00 | 96 | 1016.6 |
| 20260510101522 | 51 | 150 | 1.0 | 1.0 | 0.00 | 0.00 | 0.00 | 96 | 1016.4 |
| 20260510101021 | 51 | 166 | 0.0 | 0.0 | 0.00 | 0.00 | 0.00 | 96 | 1016.6 |
| 20260510100516 | 51 | 166 | 0.0 | 0.0 | 0.00 | 0.00 | 0.00 | 96 | 1016.6 |
| 20260510100013 | 51 | 172 | 0.0 | 0.0 | 0.00 | 0.00 | 0.00 | 96 | 1016.7 |
| 20260510092852 | 51 | 157 | 0.0 | 0.0 | 0.00 | 0.00 | 0.00 | 96 | 1017.0 |
| 20260510092349 | 51 | 157 | 0.0 | 0.0 | 0.00 | 0.00 | 0.00 | 96 | 1017.0 |
| 20260510091844 | 51 | 157 | 0.0 | 0.0 | 0.00 | 0.00 | 0.00 | 96 | 1017.1 |
| 20260510091341 | 51 | 157 | 0.0 | 0.0 | 0.00 | 0.00 | 0.00 | 96 | 1017.1 |
| 20260510090838 | 51 | 163 | 0.0 | 1.0 | 0.00 | 0.00 | 0.00 | 96 | 1017.0 |
| 20260510090334 | 51 | 163 | 0.0 | 1.0 | 0.00 | 0.00 | 0.00 | 96 | 1017.0 |
| 20260510085830 | 51 | 11 | 2.0 | 2.0 | 0.00 | 0.00 | 0.00 | 96 | 1017.0 |
| 20260510085324 | 51 | 11 | 2.0 | 2.0 | 0.00 | 0.00 | 0.00 | 96 | 1017.0 |
| 20260510084820 | 51 | 187 | 0.0 | 1.0 | 0.00 | 0.00 | 0.00 | 96 | 1016.9 |
| 20260510084318 | 51 | 187 | 0.0 | 1.0 | 0.00 | 0.00 | 0.00 | 96 | 1016.9 |
| 20260510083815 | 51 | 191 | 2.0 | 2.0 | 0.00 | 0.00 | 0.00 | 96 | 1017.2 |
| 20260510083311 | 51 | 303 | 1.0 | 1.0 | 0.00 | 0.00 | 0.00 | 96 | 1016.9 |
| 20260510082806 | 51 | 77 | 1.0 | 1.0 | 0.00 | 0.00 | 0.00 | 96 | 1016.9 |
| 20260510082306 | 52 | 230 | 1.0 | 1.0 | 0.00 | 0.00 | 0.00 | 96 | 1016.6 |
| 20260510081803 | 52 | 87 | 2.0 | 3.0 | 0.00 | 0.00 | 0.00 | 96 | 1016.8 |
| 20260510081259 | 52 | 170 | 0.0 | 1.0 | 0.00 | 0.00 | 0.00 | 96 | 1016.4 |
| 20260510080755 | 52 | 160 | 0.0 | 0.0 | 0.00 | 0.00 | 0.00 | 96 | 1016.1 |
| 20260510080250 | 52 | 142 | 0.0 | 0.0 | 0.00 | 0.00 | 0.00 | 96 | 1016.0 |
| 20260510075747 | 52 | 142 | 0.0 | 0.0 | 0.00 | 0.00 | 0.00 | 96 | 1016.0 |
| 20260510075245 | 52 | 149 | 1.0 | 1.0 | 0.00 | 0.00 | 0.00 | 96 | 1015.8 |
| 20260510074741 | 52 | 151 | 1.0 | 1.0 | 0.00 | 0.00 | 0.00 | 96 | 1016.0 |
| 20260510074238 | 52 | 182 | 0.0 | 0.0 | 0.00 | 0.00 | 0.00 | 96 | 1016.1 |
| 20260510073733 | 52 | 148 | 0.0 | 0.0 | 0.00 | 0.00 | 0.00 | 96 | 1016.2 |
| 20260510073229 | 52 | 145 | 0.0 | 0.0 | 0.00 | 0.00 | 0.00 | 96 | 1016.1 |
| 20260510031607 | 52 | 157 | 0.0 | 0.0 | 0.00 | 0.41 | 0.41 | 95 | 1015.7 |
| 20260510031104 | 52 | 157 | 0.0 | 0.0 | 0.00 | 0.41 | 0.41 | 95 | 1015.7 |
| 20260510030559 | 52 | 156 | 0.0 | 0.0 | 0.00 | 0.41 | 0.41 | 95 | 1015.7 |
| 20260510030057 | 52 | 157 | 0.0 | 0.0 | 0.00 | 0.41 | 0.41 | 95 | 1015.6 |
| 20260510025548 | 52 | 156 | 0.0 | 0.0 | 0.00 | 0.41 | 0.41 | 95 | 1015.6 |
| 20260510025046 | 51 | 154 | 0.0 | 1.0 | 0.00 | 0.41 | 0.41 | 95 | 1015.6 |
| 20260510024542 | 51 | 154 | 0.0 | 0.0 | 0.00 | 0.41 | 0.41 | 95 | 1015.7 |
| 20260510024038 | 51 | 154 | 0.0 | 0.0 | 0.00 | 0.41 | 0.41 | 95 | 1015.8 |
| 20260510023535 | 51 | 154 | 0.0 | 0.0 | 0.00 | 0.41 | 0.41 | 95 | 1015.8 |
| 20260510023032 | 51 | 154 | 0.0 | 0.0 | 0.00 | 0.41 | 0.41 | 95 | 1015.8 |
| 20260510022531 | 51 | 154 | 0.0 | 0.0 | 0.00 | 0.41 | 0.41 | 95 | 1016.1 |
| 20260510022026 | 50 | 154 | 0.0 | 0.0 | 0.00 | 0.41 | 0.41 | 95 | 1015.8 |
| 20260510021523 | 51 | 154 | 0.0 | 0.0 | 0.00 | 0.41 | 0.41 | 95 | 1015.8 |
| 20260510021021 | 50 | 154 | 0.0 | 0.0 | 0.00 | 0.41 | 0.41 | 95 | 1016.0 |
| 20260510020520 | 50 | 155 | 0.0 | 0.0 | 0.00 | 0.41 | 0.41 | 95 | 1015.8 |
| 20260510020016 | 50 | 154 | 0.0 | 0.0 | 0.00 | 0.41 | 0.41 | 95 | 1015.6 |
| 20260510015512 | 50 | 154 | 0.0 | 0.0 | 0.00 | 0.41 | 0.41 | 95 | 1015.7 |
| 20260510015008 | 51 | 154 | 0.0 | 0.0 | 0.00 | 0.41 | 0.41 | 95 | 1015.8 |
| 20260510014505 | 51 | 155 | 0.0 | 0.0 | 0.00 | 0.41 | 0.41 | 95 | 1015.7 |
| 20260510014001 | 51 | 155 | 0.0 | 0.0 | 0.00 | 0.41 | 0.41 | 95 | 1015.7 |
| 20260510013456 | 51 | 154 | 0.0 | 0.0 | 0.00 | 0.41 | 0.41 | 95 | 1015.6 |
| 20260510012952 | 51 | 155 | 0.0 | 0.0 | 0.00 | 0.41 | 0.41 | 95 | 1015.6 |
| 20260510012447 | 52 | 154 | 0.0 | 0.0 | 0.00 | 0.41 | 0.41 | 95 | 1015.5 |
| 20260510011942 | 51 | 154 | 0.0 | 0.0 | 0.00 | 0.41 | 0.41 | 95 | 1015.3 |
| 20260510011437 | 52 | 154 | 0.0 | 0.0 | 0.00 | 0.41 | 0.41 | 95 | 1015.1 |
| 20260510010933 | 52 | 155 | 0.0 | 0.0 | 0.00 | 0.41 | 0.41 | 95 | 1015.2 |
| 20260510010431 | 52 | 155 | 0.0 | 0.0 | 0.00 | 0.41 | 0.41 | 95 | 1015.1 |
| 20260510005928 | 52 | 155 | 0.0 | 0.0 | 0.00 | 0.41 | 0.41 | 95 | 1015.1 |
| 20260510005423 | 53 | 155 | 0.0 | 0.0 | 0.00 | 0.41 | 0.41 | 95 | 1015.2 |
| 20260510004921 | 53 | 155 | 0.0 | 0.0 | 0.00 | 0.41 | 0.41 | 95 | 1015.3 |
| 20260510004418 | 53 | 155 | 0.0 | 0.0 | 0.00 | 0.41 | 0.41 | 95 | 1015.1 |
| 20260510003916 | 53 | 154 | 0.0 | 0.0 | 0.00 | 0.41 | 0.41 | 95 | 1015.2 |
| 20260510003413 | 54 | 155 | 0.0 | 0.0 | 0.00 | 0.41 | 0.41 | 95 | 1015.0 |
| 20260510002912 | 54 | 154 | 0.0 | 0.0 | 0.00 | 0.41 | 0.41 | 95 | 1015.2 |
| 20260510002409 | 54 | 162 | 0.0 | 0.0 | 0.00 | 0.41 | 0.41 | 94 | 1015.1 |
| 20260510001906 | 54 | 147 | 0.0 | 1.0 | 0.00 | 0.41 | 0.41 | 94 | 1015.2 |
| 20260510001403 | 54 | 154 | 0.0 | 0.0 | 0.00 | 0.41 | 0.41 | 94 | 1015.3 |
| 20260510000900 | 55 | 171 | 0.0 | 0.0 | 0.00 | 0.41 | 0.41 | 94 | 1015.2 |
| 20260510000357 | 55 | 119 | 0.0 | 1.0 | 0.00 | 0.41 | 0.41 | 94 | 1015.1 |
| 20260509235853 | 55 | 143 | 0.0 | 0.0 | 0.00 | 0.41 | 0.41 | 94 | 1014.9 |
| 20260509235350 | 55 | 148 | 2.0 | 3.0 | 0.00 | 0.41 | 0.41 | 94 | 1015.0 |
| 20260509234846 | 55 | 164 | 1.0 | 1.0 | 0.00 | 0.41 | 0.41 | 94 | 1015.0 |
| 20260509234343 | 55 | 168 | 0.0 | 1.0 | 0.00 | 0.41 | 0.41 | 94 | 1015.0 |
| 20260509233842 | 55 | 146 | 2.0 | 2.0 | 0.00 | 0.41 | 0.41 | 94 | 1015.0 |
| 20260509233339 | 55 | 185 | 0.0 | 0.0 | 0.00 | 0.41 | 0.41 | 94 | 1015.2 |
| 20260509232834 | 55 | 187 | 0.0 | 0.0 | 0.00 | 0.41 | 0.41 | 94 | 1015.0 |
| 20260509232332 | 55 | 144 | 0.0 | 0.0 | 0.00 | 0.41 | 0.41 | 94 | 1015.2 |
| 20260509231828 | 55 | 261 | 0.0 | 0.0 | 0.00 | 0.41 | 0.41 | 94 | 1015.4 |
| 20260509231325 | 55 | 152 | 0.0 | 0.0 | 0.00 | 0.41 | 0.41 | 94 | 1015.2 |
| 20260509230823 | 55 | 159 | 0.0 | 0.0 | 0.00 | 0.41 | 0.41 | 94 | 1015.2 |
| 20260509230320 | 55 | 159 | 0.0 | 0.0 | 0.00 | 0.41 | 0.41 | 94 | 1015.2 |
| 20260509225814 | 55 | 159 | 0.0 | 0.0 | 0.00 | 0.41 | 0.41 | 94 | 1015.1 |